{"data":{"norad_id":41121,"intl_designator":"2015-075A","name":"COSMOS 2513","alt_names":[],"object_type":"PAYLOAD","status":"ACTIVE","operator":null,"country":"CIS","launch_date":"2015-12-13","launch_site_code":"TYMSC","launch_vehicle":null,"mission":null,"orbit_class":"UNKNOWN","rcs_meters":3.362,"size_class":null,"mass_kg":null,"dimensions":null,"purposes":["comms"],"wikipedia_slug":null,"has_3d_model":false,"image_url":null,"decayed_at":null,"tle_current":{"epoch":"2026-05-24T21:16:46.928064Z","epoch_age_seconds":81513,"freshness":"FRESH","line1":"1 41121U 15075A   26144.88665426 -.00000141  00000+0  00000+0 0  9994","line2":"2 41121   0.0730  99.7041 0003240 319.5189 222.7060  1.00272225 38311","mean_motion":1.00272225,"eccentricity":0.000324,"inclination_deg":0.073,"raan_deg":99.7041,"arg_perigee_deg":319.5189,"mean_anomaly_deg":222.706,"bstar":0,"rev_number":3831,"period_min":1436.0906023577,"perigee_km":35772.810280478,"apogee_km":35800.13294686,"semimajor_km":42164.608613669,"source":"CELESTRAK","updated_at":"2026-05-25T13:38:13.998026Z"}}}